Regional Weather Roundup
Issued by NWS Mt. Holly, NJ

Home | Current Version | Previous Version | Text Only | Print | Product List | Glossary On
Versions: 1 2 3 4 5 6 7 8 9 10 11 12 13 14 15 16 17 18 19 20 21 22 23 24 25 26 27 28 29 30 31 32 33 34 35 36 37 38 39 40 41 42 43 44 45 46 47 48 49 50
000
ASUS41 KPHI 032212
RWRPHI

REGIONAL WEATHER ROUNDUP
NATIONAL WEATHER SERVICE MOUNT HOLLY NJ
500 PM EST SAT DEC 03 2016

NOTE:  "FAIR" INDICATES FEW OR NO CLOUDS BELOW 12,000 FEET WITH NO
SIGNIFICANT WEATHER AND/OR OBSTRUCTIONS TO VISIBILITY.

 * = STATION DOES NOT REPORT PRECIPITATION (E.G. RAIN, SNOW, ETC.)
        OR FOG.

NJZ015>026-032300-
SOUTHERN NEW JERSEY

CITY           SKY/WX    TMP DP  RH WIND       PRES   REMARKS
POMONA         PTCLDY    47  29  49 W12       30.13R
WILDWOOD*      CLEAR     47  34  60 NW9G16    30.16R
MILLVILLE      CLEAR     47  32  56 NW10      30.15R
WRIGHTSTOWN    PTCLDY    47  28  48 NW15      30.09R
TRENTON        CLOUDY    47  26  44 NW20G26   30.12R

$$
NJZ001>014-032300-
NORTHERN NEW JERSEY

CITY           SKY/WX    TMP DP  RH WIND       PRES   REMARKS
SUSSEX         CLOUDY    43  28  55 CALM      30.10R
ANDOVER*         N/A     41  26  55 VRB5      30.10R
MORRISTOWN     MOCLDY    45  27  49 NW8       30.11R
NEWARK         MOCLDY    46  26  45 NW17G28   30.10R
TETERBORO      CLOUDY    45  27  49 NW12      30.09R
CALDWELL       CLOUDY    45  27  49 NW10G21   30.10R
SOMERVILLE     MOCLDY    46  25  43 NW10G21   30.10S
ALLAIRE*       CLOUDY   N/A N/A N/A NW14      30.12R
TOMS RIVER*    CLOUDY    46  28  49 NW3       30.11R

$$
PAZ043-044-047-054-055-060>062-066>071-032300-
EASTERN PENNSYLVANIA

CITY           SKY/WX    TMP DP  RH WIND       PRES   REMARKS
PHILADELPHIA   CLOUDY    48  31  51 NW12      30.16R
NORTH PHILA    CLOUDY    48  27  44 NW12G26   30.15R
BLUE BELL*     CLOUDY    45  28  53 NW5       30.14S
DOYLESTOWN     CLOUDY    46  27  47 NW14G28   30.13R
QUAKERTOWN*    CLOUDY    45  27  49 N7        30.15R
PERKASIE*      CLOUDY    45  27  49 NW13G23   30.14R
POTTSTOWN      CLOUDY    45  29  53 NW10      30.17R
LANCASTER      CLOUDY    45  33  63 W14G23    30.18R
COATESVILLE    CLOUDY    45  32  61 NW12      30.16S
READING        CLOUDY    45  32  60 W10       30.16R
ALLENTOWN      CLOUDY    45  27  49 NW13      30.15R
MOUNT POCONO   MOCLDY    35  25  66 NW17G25   30.06S WCI  25
HAZLETON       CLOUDY    37  28  70 W10G26    30.14R WCI  30
LEHIGHTON        N/A     43  28  56 NW3       30.16R
WILKES BARRE   CLOUDY    41  28  60 NW10G17   30.13S

$$
DEZALL-MDZ008-012-015-019-020-032300-
DELAWARE AND EASTERN MARYLAND

CITY           SKY/WX    TMP DP  RH WIND       PRES   REMARKS
WILMINGTON     CLOUDY    48  31  51 NW17      30.17S
DOVER          CLEAR     47  32  55 W12       30.15
GEORGETOWN     CLEAR     48  29  47 VRB6G18   30.17S
EASTON         PTCLDY    46  30  53 NW12      30.22F
ABERDEEN       MOCLDY    46  30  53 NW7       30.19S
PATUXENT       PTCLDY    46  29  51 NW16G26   30.21S
OCEAN CITY     CLEAR     46  30  53 NW9       30.17R
WALLOPS ISLAND PTCLDY    46  32  58 W8        30.20R
CAMBRIDGE      CLEAR     45  32  61 NW9G20    30.19F
SALISBURY      CLEAR     46  30  53 NW9       30.18S

$$
PAZ001-021-NYZ056-072-MDZ011-DCZ001-032300-
OTHER NEARBY LOCATIONS

CITY           SKY/WX    TMP DP  RH WIND       PRES   REMARKS
HARRISBURG     MOCLDY    45  33  63 W9        30.19R
STATE COLLEGE  CLOUDY    39  30  70 W15       30.20R WCI  31
WILLIAMSPORT   CLOUDY    43  32  65 NW7       30.17R
BINGHAMTON     CLOUDY    32  30  92 NW7       30.10R WCI  26
NEW YORK CITY  MOCLDY    45  26  47 NW10G20   30.11R
BALTIMORE      MOCLDY    44  30  57 W8        30.20F
WASHINGTON DC  MOCLDY    46  29  51 NW18G24   30.23F

$$



USA.gov is the U.S. government's official web portal to all federal, state and local government web resources and services.